GW3993 Weather Reports


Display with metric or nautical units.
time (UTC)temp
F
wind
direction
speed
MPH
gust
MPH
rain 1hr
in
rain 24hr
in
rain mn
in
humidity
%
barometer
mb
20260509173740 57 285 4.0 6.0 0.00 0.00 0.00 55 1008.4
20260509173236 57 316 5.0 6.0 0.00 0.00 0.00 56 1008.7
20260509172732 57 296 9.0 13.0 0.00 0.00 0.00 56 1008.4
20260509172229 57 328 7.0 10.0 0.00 0.00 0.00 56 1008.5
20260509171724 57 278 5.0 9.0 0.00 0.00 0.00 55 1008.3
20260509171221 57 241 9.0 16.0 0.00 0.00 0.00 57 1008.6
20260509170718 57 300 5.0 7.0 0.00 0.00 0.00 58 1008.6
20260509170214 57 290 5.0 6.0 0.00 0.00 0.00 58 1008.5
20260509165712 58 288 7.0 8.0 0.00 0.00 0.00 58 1008.4
20260509165207 57 305 6.0 8.0 0.00 0.00 0.00 59 1008.4
20260509164704 57 267 5.0 7.0 0.00 0.00 0.00 60 1008.5
20260509164159 58 244 7.0 9.0 0.00 0.00 0.00 59 1008.8
20260509163657 57 256 5.0 7.0 0.00 0.00 0.00 61 1008.6
20260509163153 58 284 5.0 7.0 0.00 0.00 0.00 60 1008.6
20260509162651 58 282 5.0 8.0 0.00 0.00 0.00 59 1008.6
20260509162146 58 283 10.0 14.0 0.00 0.00 0.00 59 1008.5
20260509161642 58 300 11.0 14.0 0.00 0.00 0.00 59 1008.5
20260509161138 58 304 5.0 8.0 0.00 0.00 0.00 59 1008.7
20260509160634 58 246 3.0 5.0 0.00 0.00 0.00 59 1008.8
20260509160129 58 277 7.0 9.0 0.00 0.00 0.00 59 1008.6
20260509155626 59 277 5.0 7.0 0.00 0.00 0.00 59 1008.8
20260509155122 59 231 5.0 6.0 0.00 0.00 0.00 59 1008.6
20260509154617 59 274 5.0 6.0 0.00 0.00 0.00 59 1008.7
20260509154115 59 198 4.0 6.0 0.00 0.00 0.00 59 1008.7
20260509153612 59 270 4.0 5.0 0.00 0.00 0.00 59 1008.6
20260509153109 59 287 2.0 2.0 0.00 0.00 0.00 59 1008.8
20260509152605 60 294 4.0 6.0 0.00 0.00 0.00 59 1008.9
20260509152102 60 285 3.0 5.0 0.00 0.00 0.00 58 1008.9
20260509151558 60 319 5.0 8.0 0.00 0.00 0.00 58 1008.6
20260509151056 61 245 6.0 10.0 0.00 0.00 0.00 58 1008.5
20260509150553 61 255 5.0 6.0 0.00 0.00 0.00 57 1008.5
20260509150052 61 280 4.0 5.0 0.00 0.00 0.00 57 1008.7
20260509145547 62 270 7.0 9.0 0.00 0.00 0.00 57 1008.7
20260509145043 62 270 5.0 6.0 0.00 0.00 0.00 57 1008.6
20260509144540 62 273 4.0 6.0 0.00 0.00 0.00 57 1008.6
20260509144037 64 278 2.0 2.0 0.00 0.00 0.00 56 1008.6
20260509143534 65 293 3.0 3.0 0.00 0.00 0.00 54 1008.5
20260509143032 66 295 3.0 5.0 0.00 0.00 0.00 53 1008.5
20260509142527 66 311 7.0 10.0 0.00 0.00 0.00 50 1008.8
20260509142023 67 270 5.0 7.0 0.00 0.00 0.00 47 1008.7
20260509141520 67 285 3.0 5.0 0.00 0.00 0.00 47 1008.7
20260509141016 67 278 3.0 5.0 0.00 0.00 0.00 47 1008.8
20260509140513 68 280 7.0 9.0 0.00 0.00 0.00 46 1008.8
20260509140011 69 288 5.0 5.0 0.00 0.00 0.00 44 1008.7
20260509135508 69 317 4.0 6.0 0.00 0.00 0.00 46 1008.8
20260509135006 69 285 2.0 3.0 0.00 0.00 0.00 45 1008.8
20260509134502 70 287 4.0 5.0 0.00 0.00 0.00 43 1008.8
20260509134000 70 306 5.0 8.0 0.00 0.00 0.00 45 1008.7
20260509133456 69 288 3.0 5.0 0.00 0.00 0.00 43 1008.8
20260509132954 69 283 4.0 6.0 0.00 0.00 0.00 43 1008.8
20260509132452 69 358 5.0 6.0 0.00 0.00 0.00 44 1008.9
20260509131949 69 295 4.0 5.0 0.00 0.00 0.00 45 1008.9
20260509131447 70 341 3.0 3.0 0.00 0.00 0.00 44 1008.9
20260509130943 69 323 4.0 6.0 0.00 0.00 0.00 45 1008.9
20260509130438 69 347 5.0 6.0 0.00 0.00 0.00 44 1009.0
20260509125936 71 355 11.0 13.0 0.00 0.00 0.00 42 1009.0
20260509125432 70 334 1.0 2.0 0.00 0.00 0.00 41 1009.1
20260509124928 70 311 5.0 7.0 0.00 0.00 0.00 43 1009.2
20260509124425 69 341 5.0 7.0 0.00 0.00 0.00 45 1009.4
20260509123923 69 12 7.0 8.0 0.00 0.00 0.00 44 1009.4
20260509123420 70 340 3.0 5.0 0.00 0.00 0.00 45 1009.5
20260509122916 69 336 4.0 5.0 0.00 0.00 0.00 45 1009.7
20260509122413 69 338 3.0 5.0 0.00 0.00 0.00 44 1009.7
20260509121909 69 14 5.0 6.0 0.00 0.00 0.00 47 1010.0
20260509121407 69 16 6.0 8.0 0.00 0.00 0.00 45 1010.2
20260509120905 70 338 2.0 2.0 0.00 0.00 0.00 44 1010.0
20260509120402 71 300 5.0 6.0 0.00 0.00 0.00 43 1010.2
20260509115900 69 292 1.0 2.0 0.00 0.00 0.00 45 1010.3
20260509115357 68 324 5.0 8.0 0.00 0.00 0.00 46 1010.6
20260509114855 68 337 5.0 8.0 0.00 0.00 0.00 46 1010.6
20260509114353 68 324 7.0 11.0 0.00 0.00 0.00 46 1011.1
20260509113852 68 339 4.0 5.0 0.00 0.00 0.00 46 1011.0
20260509113349 68 347 9.0 13.0 0.00 0.00 0.00 45 1010.9
20260509112845 69 0 7.0 8.0 0.00 0.00 0.00 45 1011.1
20260509112343 69 5 9.0 11.0 0.00 0.00 0.00 44 1011.0
20260509111840 68 335 4.0 6.0 0.00 0.00 0.00 46 1011.1
20260509111336 69 311 2.0 3.0 0.00 0.00 0.00 46 1011.2
20260509110834 69 341 3.0 5.0 0.00 0.00 0.00 45 1011.5
20260509110330 68 72 3.0 3.0 0.00 0.00 0.00 46 1011.4
20260509105829 68 321 3.0 3.0 0.00 0.00 0.00 46 1011.4
20260509105326 68 338 1.0 2.0 0.00 0.00 0.00 47 1011.7
20260509104823 69 328 5.0 7.0 0.00 0.00 0.00 45 1011.7
20260509104319 69 293 2.0 2.0 0.00 0.00 0.00 44 1011.6
20260509103818 68 334 3.0 5.0 0.00 0.00 0.00 45 1011.8
20260509103314 69 338 6.0 8.0 0.00 0.00 0.00 44 1011.7
20260509102813 68 330 3.0 5.0 0.00 0.00 0.00 46 1012.1
20260509102310 68 333 6.0 8.0 0.00 0.00 0.00 45 1012.1
20260509101806 67 302 1.0 1.0 0.00 0.00 0.00 45 1012.1
20260509101302 67 2 6.0 7.0 0.00 0.00 0.00 45 1012.1
20260509100800 67 358 4.0 6.0 0.00 0.00 0.00 46 1012.3
20260509100257 67 4 1.0 2.0 0.00 0.00 0.00 46 1012.2
20260509095753 66 321 5.0 6.0 0.00 0.00 0.00 47 1012.3
20260509095251 67 350 3.0 5.0 0.00 0.00 0.00 47 1012.7
20260509094748 68 35 5.0 6.0 0.00 0.00 0.00 46 1012.6
20260509094245 68 84 1.0 1.0 0.00 0.00 0.00 48 1012.4
20260509093742 68 36 5.0 8.0 0.00 0.00 0.00 47 1012.5
20260509093239 67 322 2.0 3.0 0.00 0.00 0.00 48 1012.8
20260509092738 67 48 2.0 2.0 0.00 0.00 0.00 49 1012.7
20260509092235 67 90 5.0 7.0 0.00 0.00 0.00 46 1012.9
20260509091733 67 308 3.0 3.0 0.00 0.00 0.00 47 1013.0
20260509091229 67 42 3.0 5.0 0.00 0.00 0.00 48 1013.0
20260509090727 68 71 2.0 3.0 0.00 0.00 0.00 47 1013.2
20260509090224 67 320 3.0 3.0 0.00 0.00 0.00 46 1013.3
20260509085722 66 123 2.0 2.0 0.00 0.00 0.00 47 1013.5
20260509085219 66 30 2.0 2.0 0.00 0.00 0.00 49 1013.4
20260509084715 66 309 2.0 2.0 0.00 0.00 0.00 48 1013.5
20260509084212 66 137 1.0 2.0 0.00 0.00 0.00 48 1013.5
20260509083710 67 76 2.0 2.0 0.00 0.00 0.00 49 1013.6
20260509083206 65 341 2.0 2.0 0.00 0.00 0.00 49 1013.6
20260509082703 65 344 2.0 3.0 0.00 0.00 0.00 49 1013.6
20260509082200 64 330 3.0 3.0 0.00 0.00 0.00 53 1013.8
20260509081657 64 333 1.0 1.0 0.00 0.00 0.00 53 1013.6
20260509081154 63 6 1.0 2.0 0.00 0.00 0.00 53 1013.9
20260509080652 64 16 2.0 2.0 0.00 0.00 0.00 52 1013.9
20260509080150 63 35 1.0 2.0 0.00 0.00 0.00 53 1013.9
20260509075648 64 45 3.0 3.0 0.00 0.00 0.00 52 1013.8
20260509075145 64 46 3.0 3.0 0.00 0.00 0.00 51 1014.2
20260509074642 63 32 1.0 1.0 0.00 0.00 0.00 53 1013.8
20260509074138 63 119 2.0 2.0 0.00 0.00 0.00 53 1013.9
20260509073635 62 334 1.0 2.0 0.00 0.00 0.00 53 1014.0
20260509073126 61 0 2.0 2.0 0.00 0.00 0.00 58 1014.0
20260509072623 61 57 2.0 2.0 0.00 0.00 0.00 61 1013.9
20260509072120 61 341 0.0 1.0 0.00 0.00 0.00 62 1013.9
20260509071616 60 224 0.0 1.0 0.00 0.00 0.00 64 1013.9
20260509071113 59 117 2.0 2.0 0.00 0.00 0.00 67 1014.0
20260509070611 58 122 1.0 2.0 0.00 0.00 0.00 73 1013.9
20260509070107 56 208 1.0 2.0 0.00 0.00 0.00 79 1014.0
20260509065603 56 238 0.0 1.0 0.00 0.00 0.00 85 1014.2
20260509065059 54 296 1.0 1.0 0.00 0.00 0.00 88 1013.9
20260509064556 53 290 0.0 1.0 0.00 0.00 0.00 89 1013.9
20260509064054 53 286 0.0 0.0 0.00 0.00 0.00 90 1013.9
20260509063550 52 242 1.0 1.0 0.00 0.00 0.00 90 1014.0
20260509063047 52 233 1.0 1.0 0.00 0.00 0.00 90 1014.0
20260509062544 52 291 0.0 0.0 0.00 0.00 0.00 91 1014.0
20260509062042 51 286 0.0 0.0 0.00 0.00 0.00 91 1014.3
20260509061538 51 286 0.0 0.0 0.00 0.00 0.00 91 1014.4
20260509061036 49 288 0.0 0.0 0.00 0.00 0.00 92 1014.4
20260509060533 46 292 1.0 1.0 0.00 0.00 0.00 91 1014.3
20260509060029 45 292 0.0 1.0 0.00 0.00 0.00 91 1014.4
20260509055524 44 296 1.0 1.0 0.00 0.00 0.00 91 1014.3
20260509055020 43 258 0.0 0.0 0.00 0.00 0.00 91 1014.3
20260509054517 42 291 0.0 0.0 0.00 0.00 0.00 91 1014.2
20260509054015 42 303 1.0 1.0 0.00 0.00 0.00 91 1014.2
20260509053513 41 281 1.0 1.0 0.00 0.00 0.00 90 1014.4
20260509053010 42 251 0.0 1.0 0.00 0.00 0.00 90 1014.0
20260509052507 42 308 1.0 1.0 0.00 0.00 0.00 90 1013.8
20260509052005 42 303 0.0 1.0 0.00 0.00 0.00 90 1013.9
20260509051503 42 307 0.0 1.0 0.00 0.00 0.00 90 1014.0
20260509051000 42 311 1.0 1.0 0.00 0.00 0.00 90 1014.0
20260509050456 42 303 1.0 1.0 0.00 0.00 0.00 90 1014.2
20260509045953 42 302 1.0 1.0 0.00 0.00 0.00 90 1014.0
20260509045450 42 298 1.0 1.0 0.00 0.00 0.00 90 1014.4
20260509044947 43 298 1.0 1.0 0.00 0.00 0.00 90 1014.3
20260509044445 42 296 0.0 0.0 0.00 0.00 0.00 90 1014.5
20260509043942 43 305 1.0 1.0 0.00 0.00 0.00 90 1014.4
20260509043437 43 293 1.0 1.0 0.00 0.00 0.00 90 1014.4
20260509042933 42 290 1.0 1.0 0.00 0.00 0.00 89 1014.4
20260509042431 43 291 0.0 0.0 0.00 0.00 0.00 89 1014.3
20260509041927 43 291 0.0 0.0 0.00 0.00 0.00 89 1014.5
20260509041423 43 291 1.0 1.0 0.00 0.00 0.00 89 1014.5
20260509040921 43 291 1.0 1.0 0.00 0.00 0.00 89 1014.4
20260509040419 43 290 0.0 0.0 0.00 0.00 0.00 89 1014.2
20260509035916 43 292 0.0 0.0 0.00 0.00 0.00 89 1014.3
20260509035413 42 306 1.0 1.0 0.00 0.00 0.00 89 1014.4
20260509034909 43 310 1.0 1.0 0.00 0.00 0.00 89 1014.3
20260509034407 43 310 1.0 1.0 0.00 0.00 0.00 89 1014.4
20260509033904 44 312 1.0 1.0 0.00 0.00 0.00 89 1014.2
20260509033401 43 310 1.0 1.0 0.00 0.00 0.00 89 1014.2
20260509032857 44 310 1.0 1.0 0.00 0.00 0.00 89 1014.4
20260509032355 44 310 1.0 1.0 0.00 0.00 0.00 89 1014.6
20260509031853 44 310 1.0 1.0 0.00 0.00 0.00 89 1014.7
20260509031350 44 311 1.0 1.0 0.00 0.00 0.00 89 1014.6
20260509030847 44 310 1.0 1.0 0.00 0.00 0.00 88 1014.6
20260509030345 44 311 1.0 1.0 0.00 0.00 0.00 88 1014.9
20260509025837 44 311 1.0 2.0 0.00 0.00 0.00 88 1014.8
20260509025332 44 310 1.0 1.0 0.00 0.00 0.00 88 1014.8
20260509024828 43 310 1.0 1.0 0.00 0.00 0.00 88 1014.8
20260509024324 44 310 1.0 1.0 0.00 0.00 0.00 88 1014.8
20260509023821 44 310 1.0 1.0 0.00 0.00 0.00 88 1014.9
20260509023319 44 310 1.0 1.0 0.00 0.00 0.00 88 1014.8
20260509022815 44 310 0.0 0.0 0.00 0.00 0.00 88 1014.8
20260509022313 44 310 1.0 1.0 0.00 0.00 0.00 88 1014.9
20260509021809 44 310 1.0 1.0 0.00 0.00 0.00 88 1014.9
20260509021306 44 310 1.0 1.0 0.00 0.00 0.00 88 1014.7
20260509020804 44 310 1.0 1.0 0.00 0.00 0.00 87 1014.9
20260509020302 44 310 1.0 1.0 0.00 0.00 0.00 87 1014.9
20260509015759 44 310 1.0 1.0 0.00 0.00 0.00 87 1014.8
20260509015257 44 310 1.0 1.0 0.00 0.00 0.00 87 1015.0
20260509014753 44 311 1.0 1.0 0.00 0.00 0.00 87 1015.2
20260509014250 44 310 1.0 1.0 0.00 0.00 0.00 87 1015.1
20260509013747 44 310 0.0 0.0 0.00 0.00 0.00 86 1015.1
20260509013243 44 310 0.0 0.0 0.00 0.00 0.00 86 1015.3
20260509012740 44 315 1.0 1.0 0.00 0.00 0.00 86 1015.3
20260509012236 44 307 1.0 1.0 0.00 0.00 0.00 86 1015.5
20260509011733 44 306 1.0 1.0 0.00 0.00 0.00 86 1015.6
20260509011231 44 306 1.0 1.0 0.00 0.00 0.00 85 1015.4
20260509010728 44 305 1.0 1.0 0.00 0.00 0.00 85 1015.5
20260509010224 44 306 1.0 1.0 0.00 0.00 0.00 85 1015.5
20260509005722 44 303 1.0 1.0 0.00 0.00 0.00 85 1015.5
20260509005220 45 303 1.0 2.0 0.00 0.00 0.00 85 1015.5
20260509004719 45 300 1.0 1.0 0.00 0.00 0.00 85 1015.4
20260509004217 45 299 1.0 1.0 0.00 0.00 0.00 84 1015.7
20260509003715 45 296 1.0 1.0 0.00 0.00 0.00 84 1015.6
20260509003213 45 295 1.0 1.0 0.00 0.00 0.00 84 1015.7
20260509002709 46 295 0.0 0.0 0.00 0.00 0.00 84 1015.5
20260509002207 46 291 0.0 1.0 0.00 0.00 0.00 84 1015.8
20260509001705 45 295 0.0 1.0 0.00 0.00 0.00 84 1015.8
20260509001200 46 297 1.0 1.0 0.00 0.00 0.00 84 1015.9
20260509000659 46 295 1.0 1.0 0.00 0.00 0.00 84 1015.8
20260509000155 46 291 1.0 1.0 0.00 0.00 0.00 84 1016.0
20260508235652 46 291 0.0 0.0 0.00 0.00 0.00 84 1015.8
20260508235149 45 292 0.0 1.0 0.00 0.00 0.00 84 1015.8
20260508234646 46 295 1.0 1.0 0.00 0.00 0.00 84 1015.7
20260508234142 46 298 1.0 1.0 0.00 0.00 0.00 84 1015.7
20260508233642 46 289 1.0 1.0 0.00 0.00 0.00 85 1015.7
20260508233139 46 283 1.0 1.0 0.00 0.00 0.00 84 1015.9
20260508232636 45 284 0.0 0.0 0.00 0.00 0.00 84 1015.8
20260508232133 45 284 1.0 1.0 0.00 0.00 0.00 84 1016.0
20260508231631 45 279 0.0 0.0 0.00 0.00 0.00 84 1016.0
20260508231127 45 304 1.0 1.0 0.00 0.00 0.00 84 1015.9
20260508230624 45 305 1.0 1.0 0.00 0.00 0.00 84 1016.1
20260508230120 45 305 2.0 2.0 0.00 0.00 0.00 83 1016.1
20260508225619 46 292 1.0 1.0 0.00 0.00 0.00 84 1015.9
20260508225114 45 293 1.0 1.0 0.00 0.00 0.00 83 1016.0
20260508224613 45 295 0.0 1.0 0.00 0.00 0.00 83 1016.4
20260508224110 45 295 0.0 1.0 0.00 0.00 0.00 83 1016.3
20260508223608 45 303 1.0 1.0 0.00 0.00 0.00 83 1016.0
20260508223105 45 300 1.0 1.0 0.00 0.00 0.00 83 1016.3
20260508222602 45 301 1.0 1.0 0.00 0.00 0.00 83 1016.4
20260508222059 45 295 1.0 1.0 0.00 0.00 0.00 83 1016.4
20260508221555 45 292 1.0 1.0 0.00 0.00 0.00 82 1016.5
20260508221051 45 293 0.0 0.0 0.00 0.00 0.00 82 1016.5
20260508220548 46 309 1.0 1.0 0.00 0.00 0.00 82 1016.5
20260508220044 45 314 2.0 2.0 0.00 0.00 0.00 82 1016.6
20260508215541 46 304 1.0 2.0 0.00 0.00 0.00 81 1016.3
20260508215037 45 303 1.0 2.0 0.00 0.00 0.00 81 1016.6
20260508214535 45 291 1.0 1.0 0.00 0.00 0.00 80 1016.5
20260508214031 46 301 1.0 1.0 0.00 0.00 0.00 80 1016.5
20260508213529 46 298 1.0 1.0 0.00 0.00 0.00 79 1016.5
20260508213024 46 296 1.0 1.0 0.00 0.00 0.00 79 1016.6
20260508212521 46 296 0.0 1.0 0.00 0.00 0.00 79 1016.6
20260508212017 46 296 0.0 1.0 0.00 0.00 0.00 78 1016.5
20260508211513 47 295 0.0 0.0 0.00 0.00 0.00 78 1016.8
20260508211010 47 296 0.0 0.0 0.00 0.00 0.00 78 1016.7
20260508210506 47 294 0.0 1.0 0.00 0.00 0.00 78 1016.8
20260508210004 46 291 0.0 0.0 0.00 0.00 0.00 78 1016.9
20260508205500 47 291 0.0 0.0 0.00 0.00 0.00 78 1016.8
20260508204956 48 303 1.0 1.0 0.00 0.00 0.00 78 1016.9
20260508204454 47 313 1.0 2.0 0.00 0.00 0.00 78 1016.7
20260508203949 47 312 2.0 2.0 0.00 0.00 0.00 78 1016.9
20260508203445 47 286 0.0 1.0 0.00 0.00 0.00 78 1016.9
20260508202941 47 295 1.0 1.0 0.00 0.00 0.00 78 1017.0
20260508202439 47 295 1.0 1.0 0.00 0.00 0.00 78 1016.8
20260508201935 47 292 0.0 1.0 0.00 0.00 0.00 77 1016.9
20260508201432 47 305 1.0 1.0 0.00 0.00 0.00 77 1017.0
20260508200929 47 309 1.0 1.0 0.00 0.00 0.00 77 1016.8
20260508200426 47 277 1.0 1.0 0.00 0.00 0.00 76 1016.8
20260508195921 47 294 1.0 1.0 0.00 0.00 0.00 75 1017.0
20260508195418 47 306 1.0 1.0 0.00 0.00 0.00 74 1017.1
20260508194914 47 293 1.0 1.0 0.00 0.00 0.00 73 1017.3
20260508194412 48 299 0.0 1.0 0.00 0.00 0.00 72 1016.9
20260508193909 49 298 0.0 1.0 0.00 0.00 0.00 71 1016.9
20260508193406 49 277 1.0 1.0 0.00 0.00 0.00 71 1017.0
20260508192902 49 290 0.0 0.0 0.00 0.00 0.00 71 1016.8
20260508192358 50 311 1.0 1.0 0.00 0.00 0.00 70 1016.8
20260508191856 50 287 1.0 1.0 0.00 0.00 0.00 70 1016.9
20260508191353 50 306 1.0 1.0 0.00 0.00 0.00 69 1017.0
20260508190850 50 299 1.0 1.0 0.00 0.00 0.00 69 1016.8
20260508190346 50 262 1.0 1.0 0.00 0.00 0.00 69 1016.9
20260508185843 50 272 0.0 0.0 0.00 0.00 0.00 69 1016.8
20260508185340 50 285 0.0 1.0 0.00 0.00 0.00 69 1016.9
20260508184838 50 294 1.0 1.0 0.00 0.00 0.00 68 1016.9
20260508184335 50 310 1.0 1.0 0.00 0.00 0.00 67 1017.0
20260508183832 51 312 1.0 1.0 0.00 0.00 0.00 65 1017.0
20260508183328 53 288 1.0 1.0 0.00 0.00 0.00 63 1016.8
20260508182824 53 272 0.0 0.0 0.00 0.00 0.00 62 1017.0
20260508182321 53 275 0.0 0.0 0.00 0.00 0.00 61 1016.9
20260508181816 54 264 0.0 0.0 0.00 0.00 0.00 61 1016.8
20260508181314 55 292 1.0 1.0 0.00 0.00 0.00 58 1016.8
20260508180811 56 295 0.0 0.0 0.00 0.00 0.00 57 1016.8
20260508180308 58 290 0.0 1.0 0.00 0.00 0.00 55 1016.9
20260508175803 58 255 4.0 6.0 0.00 0.00 0.00 53 1016.8
20260508175300 59 276 5.0 7.0 0.00 0.00 0.00 52 1016.8
20260508174758 59 258 4.0 5.0 0.00 0.00 0.00 52 1016.8
20260508174255 59 290 3.0 3.0 0.00 0.00 0.00 53 1016.7